Location: St. Louis
(38.6270°N, 90.1994°W)
Time: 09:31:38
(UTC-06:00)

Vanguard 2 Rocket - Pass Details

Date: 05 December 2021
Orbit: 553 x 3325 km, 32.9° (Epoch: 23 January)

Event Time Altitude Azimuth Distance (km) Brightness Sun altitude
Rises 23:34:09 0° 273° (W) 4,928 - -73.5°
Reaches altitude 10° 23:37:31 10° 263° (W) 4,305 - -73.6°
Maximum altitude 23:47:43 30° 208° (SSW) 3,855 - -73.9°
Drops below altitude 10° 00:02:10 10° 157° (SSE) 6,093 - -73.7°
Sets 00:08:16 0° 148° (SSE) 7,270 - -73.5°
